Regional Weather Roundup
Issued by NWS

Home | Current Version | Previous Version | Text Only | Print | Product List | Glossary On
Versions: 1 2 3 4 5 6 7 8 9 10 11 12 13 14 15 16 17 18 19 20 21 22 23 24 25 26 27 28 29 30 31 32 33 34 35 36 37 38 39 40 41 42 43 44 45 46 47 48 49 50
000
ASUS43 KDTX 260610
RWRMI
MICHIGAN HOURLY REGIONAL WEATHER ROUNDUP
NATIONAL WEATHER SERVICE DETROIT/PONTIAC MI
200 AM EDT SUN APR 26 2015

NOTE: "FAIR" INDICATES FEW OR NO CLOUDS BELOW 12,000 FEET WITH NO
SIGNIFICANT WEATHER AND/OR OBSTRUCTION TO VISIBILITY.

MIZ047>049-052>055-059>063-066>070-074>076-081>083-260700-
SOUTHEAST LOWER MICHIGAN

CITY           SKY/WX    TMP DP  RH WIND       PRES   REMARKS
ADRIAN         CLEAR     39  27  62 NE9       29.83R WCI  33
6HR MIN TEMP:  39; 6HR MAX TEMP:  46;

ALMA           CLEAR     34  25  70 N5        29.89S WCI  30
ANN ARBOR      CLEAR     39  25  57 NE9       29.84R WCI  33
BAD AXE        CLEAR     33  26  73 N3        29.88S
CARO           CLEAR     32  26  77 CALM      29.87S
DETROIT CITY   CLEAR     38  25  59 N10       29.84R WCI  31
6HR MIN TEMP:  38; 6HR MAX TEMP:  46;

DETROIT        PTCLDY    40  25  55 N8        29.85R WCI  34
6HR MIN TEMP:  40; 6HR MAX TEMP:  49;

FLINT          CLEAR     36  23  59 NE7       29.87S WCI  30
6HR MIN TEMP:  36; 6HR MAX TEMP:  48;

GROSSE ILE     CLEAR     41  27  56 N10       29.82R
HILLSDALE      CLEAR     40  26  57 N8        29.83R WCI  35
HOWELL         CLEAR     37  24  61 N3        29.85S
6HR MIN TEMP:  37; 6HR MAX TEMP:  48;


CITY           SKY/WX    TMP DP  RH WIND       PRES   REMARKS
JACKSON        CLEAR     39  25  57 NE7       29.84R WCI  34
6HR MIN TEMP:  39; 6HR MAX TEMP:  48;

LAMBERTVILLE   PTCLDY    41  28  60 N6        29.82S
LANSING        CLEAR     35  24  64 NE7       29.88R WCI  29
6HR MIN TEMP:  35; 6HR MAX TEMP:  49;

LAPEER         FAIR      33  24  70 NE3       29.86S
MASON          CLEAR     36  25  65 N5        29.86S WCI  32
MONROE         PTCLDY    39  27  60 N6        29.81S WCI  35
PONTIAC        CLEAR     36  24  62 NE7       29.83S WCI  30
6HR MIN TEMP:  36; 6HR MAX TEMP:  47;

PORT HOPE        N/A     40  31  70 N12       29.86F WCI  33
6HR MIN TEMP:  38; 6HR MAX TEMP:  40;

PORT HURON     CLEAR     36  28  75 N8        29.85F WCI  29
TRI CITIES     CLEAR     37  28  70 N10       29.89S WCI  30
6HR MIN TEMP:  35; 6HR MAX TEMP:  43;

MIDLAND        FAIR      35  25  65 N5        29.89S WCI  31
TROY           CLEAR     39  26  59 NE10      29.86S WCI  32
SAGINAW HB     CLEAR     32  28  86 NE3       29.88R
$$
MIZ043>046-050>051-056>058-064>065-071>073-077>080-260700-
SOUTHWEST LOWER MICHIGAN

CITY           SKY/WX    TMP DP  RH WIND       PRES   REMARKS
BATTLE CREEK   CLEAR     39  27  62 NE6       29.86R WCI  35
6HR MIN TEMP:  38; 6HR MAX TEMP:  51;

BENTON HARBOR  CLEAR     41  28  60 N3        29.86R
6HR MIN TEMP:  40; 6HR MAX TEMP:  48;

BIG RAPIDS     CLEAR     35  25  66 CALM      29.90R
6HR MIN TEMP:  35; 6HR MAX TEMP:  48;

COLDWATER      CLEAR     37  27  65 NE6       29.84R WCI  33
6HR MIN TEMP:  37; 6HR MAX TEMP:  46;

FREMONT        FAIR      37  21  51 NE5       29.90R WCI  33
HOLLAND        CLEAR     42  25  50 NE5       29.89R
6HR MIN TEMP:  42; 6HR MAX TEMP:  55;

GRAND RAPIDS   CLEAR     37  24  59 NE7       29.88R WCI  32
6HR MIN TEMP:  37; 6HR MAX TEMP:  49;

IONIA          FAIR      35  25  65 NE5       29.87S WCI  31
KALAMAZOO      CLEAR     39  27  62 NE5       29.86R
6HR MIN TEMP:  39; 6HR MAX TEMP:  50;

LUDINGTON      CLEAR     36  27  69 N3        29.92S
6HR MIN TEMP:  36; 6HR MAX TEMP:  48;

MARSHALL       CLEAR     37  27  65 CALM      29.84S
MOUNT PLEASANT CLEAR     36  26  67 N3        29.89S
6HR MIN TEMP:  35; 6HR MAX TEMP:  44;

MUSKEGON       CLEAR     39  23  52 NE7       29.90R WCI  34
6HR MIN TEMP:  39; 6HR MAX TEMP:  52;

SOUTH HAVEN    CLEAR     41  27  55 E3        29.87R
$$
MIZ016>042-260700-
NORTHERN LOWER MICHIGAN

CITY           SKY/WX    TMP DP  RH WIND       PRES   REMARKS
BEAVER ISLAND  CLEAR     34  25  68 N5        29.97S WCI  30
6HR MIN TEMP:  33; 6HR MAX TEMP:  47;

BELLAIRE       CLEAR     31  26  84 CALM      29.95S
6HR MIN TEMP:  30; 6HR MAX TEMP:  51;

CADILLAC       CLEAR     27  21  79 CALM      29.90F
CHARLEVOIX     CLEAR     35  27  70 N6        29.98S WCI  30
6HR MIN TEMP:  35; 6HR MAX TEMP:  49;

FRANKFORT      CLEAR     42  22  44 N6        29.95S
GAYLORD        PTCLDY    37  21  52 VRB3      29.91S
6HR MIN TEMP:  36; 6HR MAX TEMP:  47;

GRAYLING       CLEAR     26  22  84 CALM      29.92S HAZE
6HR MIN TEMP:  24; 6HR MAX TEMP:  47;

HARBOR SPRINGS CLEAR     37  21  53 N5        29.94S WCI  33
HOUGHTON LAKE  CLEAR     30  24  78 N6        29.91S WCI  24
6HR MIN TEMP:  28; 6HR MAX TEMP:  46;

MANISTEE       CLEAR     37  21  52 NE3       29.93S
OSCODA         CLOUDY    37  26  65 NW5       29.89F WCI  33
PELLSTON       CLEAR     29  22  75 NW5       29.95S WCI  24
6HR MIN TEMP:  28; 6HR MAX TEMP:  50;

ROGERS CITY    CLEAR     34  27  74 W3        29.94S
TRAVERSE CITY  CLEAR     32  27  81 CALM      29.94S
6HR MIN TEMP:  32; 6HR MAX TEMP:  49;

$$
MIZ007>008-015-260700-
EASTERN UPPER MICHIGAN

CITY           SKY/WX    TMP DP  RH WIND       PRES   REMARKS
KINROSS        CLEAR     30  27  86 N6        29.95S WCI  24
6HR MIN TEMP:  30; 6HR MAX TEMP:  43;

MACKINAC ISLAN CLEAR     34  26  74 N8        29.95S WCI  27
6HR MIN TEMP:  34; 6HR MAX TEMP:  44;

NEWBERRY       CLEAR     31  26  79 N6        29.97S WCI  26
S. S. MARIE    CLEAR     32  25  75 W7        29.95S WCI  26
6HR MIN TEMP:  31; 6HR MAX TEMP:  41;

MUNISING         N/A     29  24  82 S3        30.01S
6HR MIN TEMP:  29; 6HR MAX TEMP:  36;

$$
MIZ004>006-011>014-085-260700-
CENTRAL UPPER MICHIGAN

CITY           SKY/WX    TMP DP  RH WIND       PRES   REMARKS
MANISTIQUE     CLEAR     31  24  74 N8        29.97F WCI  24
ESCANABA       CLEAR     34  19  55 N5        29.99S WCI  30
6HR MIN TEMP:  34; 6HR MAX TEMP:  48;

MENOMINEE      CLEAR     34  19  55 N5        29.99S WCI  30
6HR MIN TEMP:  34; 6HR MAX TEMP:  46;

SAWYER-GWINN   CLEAR     29  17  60 N3        29.99S
6HR MIN TEMP:  28; 6HR MAX TEMP:  37;

$$
MIZ001>003-009>011-084-260700-
WESTERN UPPER MICHIGAN

CITY           SKY/WX    TMP DP  RH WIND       PRES   REMARKS
IRON MOUNTAIN  CLEAR     30  18  60 N6        29.99S WCI  24
6HR MIN TEMP:  29; 6HR MAX TEMP:  49;

HOUGHTON       CLEAR     36  17  46 N8        30.02S WCI  30
6HR MIN TEMP:  28; 6HR MAX TEMP:  41;

COPPER HARBOR    N/A     32  23  69 CALM      30.04R
6HR MIN TEMP:  30; 6HR MAX TEMP:  37;

IRONWOOD       CLEAR     28  25  86 CALM      30.03R
6HR MIN TEMP:  28; 6HR MAX TEMP:  43;

$$

ABBREVIATIONS USED IN REMARKS
   TC - TEMPERATURE IN CELSIUS
  WCI - WIND CHILL INDEX
   HX - HEAT INDEX
  VSB - VISIBILITY



USA.gov is the U.S. government's official web portal to all federal, state and local government web resources and services.